Wind_Speed
30 30 29 29 29 29 29 29 30 30 31 30 30 29 29 27 26 25 24 23 23 22 22 22 23 23 24 26 26 27 28 28 29 29 29 29 30 30
29 29 29 29 29 28 27 28 28 28 28 28 27 28 27 26 24 24 24 23 23 23 24 24 24 24 25 25 26 26 27 28 29 29 30 30 30 30
26 27 27 28 28 28 27 27 27 27 26 26 26 26 25 25 24 24 24 24 24 24 24 25 25 25 25 26 26 27 27 28 28 29 30 30 30 31
23 23 24 25 26 26 26 26 26 25 25 24 23 24 24 24 24 24 24 24 24 25 25 26 26 25 25 26 26 27 27 28 28 29 30 30 30 31
21 21 21 21 22 22 22 23 23 23 22 22 22 23 23 23 23 24 24 25 25 26 26 26 26 26 26 26 26 26 27 27 28 29 30 30 30 31
18 17 18 18 19 20 20 19 20 20 20 20 21 21 21 22 23 23 24 24 25 25 26 26 26 26 26 26 26 26 26 27 28 28 29 29 30 30
14 15 15 16 17 17 17 18 18 19 19 20 20 20 21 21 22 22 22 23 24 24 25 26 27 27 27 27 26 27 26 27 28 28 28 28 29 29
12 12 13 13 14 15 15 16 17 18 18 18 19 19 19 20 21 21 22 22 23 24 24 25 25 26 26 26 26 26 26 27 27 27 27 27 28 29
11 11 12 12 13 14 15 15 16 16 17 17 18 18 19 19 20 20 21 22 22 23 23 23 23 24 25 25 24 24 25 25 26 26 26 26 26 26
11 11 12 12 13 14 14 15 15 15 15 16 17 17 17 18 18 19 19 19 20 20 21 21 21 21 22 22 22 23 23 24 24 25 24 25 25 26
9 10 11 12 12 13 13 14 14 13 14 15 15 16 16 16 17 17 17 17 17 17 17 18 18 18 19 19 19 20 20 21 21 22 23 24 24 24
7 7 9 10 10 11 11 11 12 12 12 13 14 14 14 14 14 14 15 15 15 15 15 15 16 16 16 16 17 17 18 19 19 20 22 22 22 23
6 6 6 7 7 8 9 10 10 11 11 11 12 12 12 12 12 12 12 13 13 13 13 13 14 14 14 14 15 16 16 16 17 17 18 19 20 20
3 3 4 5 5 6 8 8 9 10 10 10 10 10 10 9 9 10 10 10 11 11 11 11 11 12 12 12 12 13 14 14 14 15 15 16 17 18
2 2 2 2 3 4 5 6 7 7 8 8 7 7 7 8 8 8 8 9 9 9 9 9 9 9 9 10 10 11 12 12 13 13 13 15 15 16
4 3 2 2 2 2 3 4 4 5 5 5 6 6 7 6 6 6 6 6 6 6 6 7 7 8 8 8 9 10 10 11 11 12 12 13 15 16
8 6 5 4 3 2 1 0 1 2 3 3 4 4 4 4 4 4 3 4 4 4 4 5 6 6 7 7 8 9 10 10 10 11 12 13 15 16
11 10 9 8 7 5 4 3 2 2 1 0 1 2 2 2 2 2 2 2 2 2 3 4 5 6 7 7 8 8 9 11 12 12 13 14 14 15
13 12 12 11 10 9 7 6 5 5 4 4 3 3 2 2 2 1 1 1 1 2 2 3 4 5 6 7 8 9 10 10 11 12 13 14 15 16
15 14 13 13 12 12 11 10 9 9 8 7 6 6 5 5 4 3 3 2 2 3 3 4 5 6 7 8 8 9 9 10 12 13 14 15 16 17
16 16 15 15 14 13 13 12 12 12 11 11 10 9 8 7 7 6 5 5 5 5 5 6 6 7 8 9 9 10 11 11 12 14 15 16 17 18
15 15 15 15 15 14 14 13 13 13 13 12 11 11 10 9 9 8 7 7 6 6 6 7 8 9 9 10 10 11 12 13 14 15 16 18 19 20
14 14 14 14 14 14 14 14 13 13 13 13 12 11 11 10 9 9 8 8 8 7 7 8 8 9 10 11 12 13 14 15 16 17 18 19 20 21
Wind_Direction
256 256 256 255 256 254 252 252 250 248 246 247 251 252 253 255 258 261 263 266 269 272 274 275 275 276 278 276 276 276 275 273 272 271 270 269 268 267
255 253 254 255 252 252 252 250 247 246 246 247 247 249 249 251 255 259 263 266 269 271 273 275 276 277 278 277 276 276 276 274 272 271 270 269 268 267
254 253 254 253 252 250 248 246 245 244 245 246 246 248 247 250 255 258 261 265 268 270 272 275 277 278 280 279 278 276 276 274 273 271 270 269 269 268
255 253 252 252 249 248 247 246 244 244 244 244 246 247 248 251 255 259 262 265 267 269 271 275 277 278 280 279 279 278 276 274 273 272 271 270 269 269
252 250 249 249 248 246 246 244 244 244 244 245 248 248 249 252 256 259 263 265 267 270 271 274 276 277 279 279 280 279 278 275 274 273 271 270 269 269
248 249 251 250 249 246 245 245 246 247 249 250 250 249 250 253 257 260 263 266 269 270 272 273 275 277 279 279 280 279 279 277 277 275 273 272 271 270
246 248 250 250 251 250 250 251 250 249 248 248 248 251 253 256 259 261 264 267 269 270 272 273 275 277 278 278 280 281 280 279 279 278 276 274 274 273
252 252 251 251 252 251 250 251 250 248 247 248 250 253 255 257 260 262 264 267 269 270 272 274 276 278 278 278 280 281 279 281 280 280 280 278 275 274
257 254 254 252 252 252 253 253 251 250 250 250 252 254 256 259 263 265 267 269 269 270 273 275 277 278 278 278 280 282 280 280 281 279 279 278 276 276
257 257 256 253 254 254 253 253 252 253 254 255 256 257 258 261 264 267 269 271 272 273 274 276 277 279 281 281 282 283 282 280 280 280 279 279 276 276
262 260 256 255 255 252 251 252 251 252 256 259 259 260 262 263 266 268 269 271 273 276 277 279 279 280 282 282 285 285 286 285 281 282 282 280 279 277
270 266 259 256 255 251 247 249 252 255 258 260 260 260 263 265 266 268 269 270 274 277 280 282 283 283 282 284 287 288 288 288 286 285 286 285 284 282
281 273 269 262 257 252 250 250 253 257 260 261 262 262 262 264 266 269 269 272 275 277 280 284 287 288 287 288 291 293 295 295 293 292 292 292 291 289
295 277 271 266 259 255 252 254 256 258 259 260 261 260 260 264 266 269 271 274 277 280 283 287 291 292 293 295 298 299 301 303 303 301 302 302 300 298
6 336 304 276 267 255 249 251 257 258 258 258 257 256 259 264 267 270 272 274 278 282 288 293 298 301 302 305 308 310 311 312 313 312 308 309 308 307
47 44 28 359 310 268 249 248 255 255 253 252 255 258 262 263 267 269 270 273 279 284 291 299 308 313 315 318 321 325 326 324 322 321 320 318 317 316
53 53 50 45 49 64 90 195 245 255 257 258 258 262 258 258 261 261 264 271 284 295 303 309 315 322 328 331 334 338 339 338 335 333 330 328 326 324
55 55 55 57 62 66 71 77 73 62 46 333 256 240 234 232 236 236 246 264 298 314 320 322 327 334 338 341 342 343 344 342 342 340 338 336 333 331
57 58 59 61 63 64 66 70 70 68 72 74 81 92 105 124 137 137 122 115 33 5 1 360 356 353 350 348 346 346 347 347 348 347 346 344 343 341
59 60 61 62 64 64 66 69 69 71 74 76 77 82 88 93 94 94 88 79 58 40 30 21 13 6 3 0 358 357 357 357 356 356 354 352 349 347
60 61 62 64 66 67 67 68 69 70 73 75 78 79 81 84 84 83 81 77 68 59 46 36 26 19 15 13 11 8 4 1 359 358 356 354 352 350
58 60 61 62 64 66 67 69 70 71 73 74 75 76 77 79 79 79 77 72 65 57 48 40 33 27 24 20 16 12 8 5 1 358 356 355 354 352
55 56 58 60 62 65 66 68 69 71 72 72 72 73 73 72 71 70 69 65 61 55 47 39 33 28 24 21 17 12 8 5 1 359 357 356 356 355
Height
5812 5814 5815 5816 5817 5819 5820 5822 5824 5826 5828 5830 5832 5834 5835 5836 5837 5838 5839 5840 5841 5841 5841 5842 5841 5841 5841 5841 5841 5841 5841 5841 5841 5841 5841 5842 5842 5842
5803 5805 5807 5808 5809 5811 5813 5814 5816 5818 5820 5822 5825 5827 5828 5829 5831 5832 5833 5834 5834 5835 5835 5835 5835 5835 5835 5835 5834 5834 5834 5834 5834 5834 5834 5834 5834 5835
5795 5797 5799 5800 5802 5803 5805 5807 5809 5811 5813 5815 5817 5819 5821 5823 5824 5825 5826 5827 5828 5828 5829 5829 5829 5828 5828 5828 5827 5827 5826 5826 5826 5826 5826 5827 5827 5827
5788 5790 5791 5793 5795 5796 5798 5800 5801 5804 5806 5808 5811 5813 5815 5816 5818 5819 5820 5821 5821 5822 5822 5822 5822 5822 5821 5821 5820 5820 5819 5819 5819 5819 5819 5819 5819 5819
5782 5784 5785 5786 5788 5790 5791 5793 5795 5797 5800 5802 5804 5807 5809 5811 5812 5813 5814 5815 5815 5815 5815 5816 5815 5815 5814 5814 5813 5813 5812 5812 5811 5811 5811 5811 5811 5811
5777 5778 5779 5781 5782 5784 5786 5788 5790 5792 5794 5796 5799 5801 5803 5804 5806 5807 5808 5808 5808 5809 5809 5809 5809 5808 5808 5807 5807 5806 5805 5804 5804 5803 5803 5803 5803 5803
5772 5773 5775 5776 5777 5779 5781 5783 5785 5787 5789 5791 5793 5795 5797 5798 5799 5800 5801 5802 5802 5802 5802 5802 5802 5801 5801 5800 5800 5799 5798 5797 5797 5796 5795 5795 5795 5795
5768 5769 5770 5772 5773 5775 5776 5778 5780 5782 5784 5785 5787 5789 5791 5792 5793 5794 5795 5795 5796 5796 5796 5795 5795 5794 5794 5793 5792 5792 5791 5790 5789 5789 5788 5787 5787 5787
5764 5765 5766 5768 5769 5771 5772 5774 5775 5777 5779 5780 5782 5783 5785 5786 5787 5788 5788 5789 5789 5789 5789 5789 5788 5788 5787 5786 5785 5785 5784 5783 5782 5781 5781 5780 5780 5780
5760 5761 5762 5764 5765 5766 5768 5769 5771 5772 5774 5775 5777 5778 5779 5780 5781 5782 5782 5782 5782 5783 5783 5783 5782 5781 5781 5780 5779 5778 5777 5777 5776 5775 5774 5773 5773 5772
5757 5758 5759 5760 5761 5762 5763 5765 5766 5768 5769 5770 5771 5773 5773 5774 5775 5776 5777 5777 5777 5777 5777 5777 5776 5776 5775 5774 5773 5772 5771 5770 5769 5768 5767 5766 5766 5765
5753 5754 5755 5756 5757 5758 5759 5761 5762 5763 5765 5766 5767 5768 5769 5770 5770 5771 5771 5772 5772 5772 5772 5772 5771 5771 5770 5769 5768 5767 5766 5765 5763 5762 5761 5760 5759 5758
5751 5751 5752 5753 5753 5754 5755 5757 5758 5760 5761 5762 5763 5763 5764 5765 5766 5766 5767 5767 5767 5768 5768 5767 5767 5766 5765 5765 5763 5762 5761 5759 5758 5757 5755 5754 5753 5752
5749 5750 5750 5750 5751 5752 5753 5754 5755 5756 5757 5758 5759 5760 5760 5761 5761 5762 5763 5763 5763 5763 5763 5763 5763 5762 5761 5760 5759 5758 5756 5754 5753 5752 5750 5749 5747 5746
5748 5748 5749 5749 5749 5750 5751 5752 5752 5753 5754 5755 5755 5756 5757 5758 5758 5759 5759 5759 5760 5760 5760 5760 5759 5758 5757 5756 5755 5754 5752 5750 5749 5747 5746 5744 5742 5741
5748 5748 5748 5748 5748 5748 5749 5749 5750 5751 5751 5752 5753 5753 5754 5755 5755 5756 5756 5756 5757 5757 5757 5757 5756 5755 5755 5753 5752 5750 5748 5747 5745 5744 5742 5740 5738 5736
5750 5749 5749 5748 5748 5747 5748 5748 5749 5749 5749 5750 5751 5751 5752 5752 5753 5753 5754 5754 5755 5755 5755 5755 5754 5753 5752 5751 5750 5748 5746 5744 5743 5741 5739 5737 5735 5732
5752 5751 5750 5749 5749 5748 5748 5748 5749 5749 5748 5749 5749 5749 5750 5750 5751 5752 5753 5753 5754 5754 5754 5753 5753 5752 5751 5749 5748 5747 5745 5743 5741 5739 5737 5734 5732 5729
5756 5754 5753 5752 5751 5750 5750 5750 5749 5749 5749 5749 5749 5749 5749 5750 5751 5751 5752 5753 5753 5753 5753 5752 5752 5751 5750 5748 5747 5745 5744 5742 5740 5737 5735 5732 5729 5726
5760 5758 5757 5756 5755 5754 5753 5752 5751 5751 5750 5750 5750 5750 5750 5750 5751 5752 5752 5753 5753 5753 5753 5752 5751 5750 5749 5748 5746 5744 5743 5741 5739 5736 5734 5731 5727 5724
5764 5763 5761 5760 5759 5757 5757 5756 5755 5754 5753 5753 5753 5752 5752 5753 5753 5753 5753 5753 5753 5753 5753 5752 5751 5750 5749 5747 5746 5744 5742 5740 5738 5735 5733 5729 5726 5722
5769 5767 5766 5764 5763 5762 5761 5760 5759 5758 5757 5756 5756 5756 5755 5755 5755 5755 5755 5755 5755 5754 5754 5753 5752 5751 5749 5748 5746 5744 5742 5740 5737 5734 5731 5728 5725 5720
5773 5771 5770 5768 5767 5766 5765 5764 5763 5762 5761 5760 5760 5759 5759 5758 5758 5758 5757 5757 5756 5755 5755 5754 5753 5751 5750 5748 5746 5744 5742 5739 5737 5734 5731 5727 5723 5719